[Date Prev][Date Next][Thread Prev][Thread Next] - [Date Index][Thread Index][Author Index]
2 Line ISS Keps 8-15
- Subject: [sarex] 2 Line ISS Keps 8-15
- From: "Dave Larsen PhD" <doc@xxxxxxxxxxx>
- Date: Sun, 15 Aug 2004 05:08:05 -0700
ISS
1 25544U 98067A 04228.47141179 .00020643 00000-0 16614-3 0 4474
2 25544 51.6318 23.1145 0005434 114.6620 287.7896 15.70893776327639
----
Via the sarex mailing list at AMSAT.ORG courtesy of AMSAT-NA.
To unsubscribe, send "unsubscribe sarex" to Majordomo@amsat.org
AMSAT Home